Starlink 4358

operational
NORAD ID: 53225 Int'l Des: 2022-084 Owner: SPXS Country: US Constellation: starlink
LEOCIRCULARRETROGRADESSO

Über Starlink 4358

Beschreibung wird geladen...

Live-Position

3D-Globus wird geladen...

Nächste Überflüge

Höhenverlauf

Altitude vs Time

uPlot chart will show altitude changes over time

Zweizeiliger Elementsatz

1 53225U 22084AN 25259.96278152 .00000030 00000-0 69029-5 0 9990
2 53225 97.6024 320.1349 0002333 62.7854 297.3608 15.01261951173256
Epoch: 16. Sept. 2025 • Age: 12 hours

Aktueller Status

Höhe 590.9 km
Geschwindigkeit 7.56 km/s
Subsatellitenpunkt -72.59°S, 175.42°E
Startdatum 22. Juli 2022
Alter 3.1 years
Typ internet

Technische Details

Klassifizierung Payload
Masse 297.00 kg
Trockenmasse 275.00 kg
Gesamtmasse 297.00 kg
Länge 0.20 m
Durchmesser 2.80 m
Spannweite 9.00 m
Form Box + pan
Hersteller SPXS
Bus-Typ Starlink
Phasenstatus In Orbit
Besitzer/Staat SPXS/US

Große Konstellationen

Loading constellations...